Hibbing, MN

5:15 AM CDT on July 23, 2017 (GMT -0500)
Chisholm-hibbing

Weather History for KHIB - January, 2014

Change the Weather History Date:

Monday, January 13, 2014

  Actual Average Record
Temperature  
Mean Temperature 15 °F -  
Max Temperature 30 °F 16 °F 42 °F (1987)
Min Temperature 0 °F -4 °F -35 °F (2017)
Degree Days  
Heating Degree Days 50    
Moisture  
Dew Point 12 °F    
Average Humidity 67    
Maximum Humidity 87    
Minimum Humidity 53    
Precipitation  
Precipitation 0.00 in - - ()
Sea Level Pressure  
Sea Level Pressure 29.56 in    
Wind  
Wind Speed 9 mph (WNW)    
Max Wind Speed 16 mph    
Max Gust Speed 31 mph    
Visibility 10 miles    
Events      
Averages and records for this station are not official NWS values.
T = Trace of Precipitation, MM = Missing Value Source: NWS Daily Summary

Daily Weather History Graph

Daily Weather History Graph

Search for Another Location

Airport or City:

Trip Planner

Search our weather history database for the weather conditions in past years. The results will help you decide how hot, cold, wet, or windy it might be!

Date:

Astronomy

Jan. 13, 2014 Rise Set
Actual Time 7:55 AM CST 4:45 PM CST
Civil Twilight 7:20 AM CST 5:20 PM CST
Nautical Twilight 6:42 AM CST 5:58 PM CST
Astronomical Twilight 6:05 AM CST 6:35 PM CST
Moon 3:02 PM CST (1/13) 5:43 AM CST (1/13)
Length of Visible Light 9h 59m
Length of Day
8h 50m
Waxing Gibbous, 95% of the Moon is Illuminated
Jan 13
Waxing Gibbous
Jan 15
Full
Jan 23
Last Quarter
Jan 30
New
Feb 6
First Quarter

Hourly Weather History & Observations

Time (CST) Temp. Windchill Dew Point Humidity Pressure Visibility Wind Dir Wind Speed Gust Speed Precip Events Conditions
12:53 AM 30.9 °F 24.3 °F 26.1 °F 82% 29.47 in 10.0 mi WNW 6.9 mph - N/A   Overcast
2:41 AM 30.2 °F 21.3 °F 23.0 °F 75% 29.42 in 10.0 mi WNW 10.4 mph - N/A   Overcast
3:53 AM 28.9 °F 18.6 °F 21.0 °F 72% 29.50 in 10.0 mi WNW 12.7 mph - N/A   Overcast
4:53 AM 28.0 °F 17.0 °F 19.9 °F 72% 29.52 in 10.0 mi NW 13.8 mph 23.0 mph N/A   Overcast
5:53 AM 25.0 °F 12.2 °F 14.0 °F 63% 29.55 in 10.0 mi NW 16.1 mph 31.1 mph N/A   Overcast
8:26 AM 24.8 °F 16.1 °F 14.0 °F 64% 29.50 in 10.0 mi WNW 8.1 mph - N/A   Overcast
8:53 AM 25.0 °F 16.3 °F 14.0 °F 63% 29.57 in 10.0 mi West 8.1 mph - N/A   Overcast
9:18 AM 24.8 °F 16.1 °F 15.8 °F 69% 29.50 in 10.0 mi WNW 8.1 mph - N/A   Overcast
10:53 AM 25.0 °F 14.2 °F 15.1 °F 66% 29.58 in 10.0 mi WNW 11.5 mph 20.7 mph 0.00 in   Overcast
11:53 AM 25.0 °F 13.1 °F 14.0 °F 63% 29.56 in 10.0 mi NW 13.8 mph 18.4 mph N/A   Overcast
12:53 PM 25.0 °F 13.1 °F 12.9 °F 60% 29.57 in 10.0 mi WNW 13.8 mph - N/A   Overcast
1:44 PM 24.8 °F 12.9 °F 10.4 °F 54% 29.51 in 10.0 mi WNW 13.8 mph 19.6 mph N/A   Overcast
1:53 PM 25.0 °F 14.8 °F 10.9 °F 55% 29.57 in 10.0 mi West 10.4 mph - N/A   Mostly Cloudy
2:53 PM 25.0 °F 14.8 °F 10.0 °F 53% 29.58 in 10.0 mi West 10.4 mph 19.6 mph N/A   Clear
3:53 PM 23.0 °F 15.8 °F 10.0 °F 58% 29.60 in 10.0 mi WSW 5.8 mph - N/A   Clear
4:53 PM 19.9 °F 11.1 °F 9.0 °F 62% 29.60 in 10.0 mi West 6.9 mph - N/A   Clear
7:53 PM 6.1 °F - 3.0 °F 87% 29.65 in 10.0 mi Calm Calm - N/A   Clear
8:53 PM -0.0 °F - -4.0 °F 83% 29.65 in 10.0 mi Calm Calm - N/A   Clear
10:53 PM 1.9 °F - -2.9 °F 80% 29.65 in 10.0 mi Calm Calm - N/A   Overcast